User: anonymous   Login
Location: Caltech
(34.1382°N, 118.1253°W)
Time: 12:16:41
(UTC-07:00)
Language:

Cosmos 1484 Rocket - Orbit

View from above orbital plane
View from above orbital plane
View from above satellite
View from above satellite

Ground track
Ground track

The orbit data is extracted from the following two-line orbital elements,

1 14208U 83075B   17177.90724721 +.00000489 +00000-0 +32941-4 0  9997
2 14208 097.3400 188.0761 0041163 097.3934 263.1977 15.10395931848676
Epoch (UTC): 26 June 2017 21:46:26
Eccentricity: 0.0041163
inclination: 97.3400°
perigee height: 506 km
apogee height: 563 km
right ascension of ascending node: 188.0761°
argument of perigee: 97.3934°
revolutions per day: 15.10395931
mean anomaly at epoch: 263.1977°
orbit number at epoch: 84867

The dashed part of the orbit path shows where the satellite is in the earth's shadow,  

DLR